Terug naar catalogus

KOSMOS-2571 SUBSAT

ActiefMilitairLEO
NORAD 58428·PAYLOAD·🇷🇺 Russia
Deze satellietnaam is nog niet bevestigd door officiële bronnen.

Gelanceerd Oct 27, 2023 vanaf Plesetsk Cosmodrome

Loading…

Volgende Passages (komende 24 uur)

TLE

VersSource: Space-Track

Epoch: Sep 14, 2026, 21:07 UTC

1 58428U 23165D   26257.88003451 -.00000026  00000-0  34923-4 0  9999
2 58428  67.1488  68.9032 0019718 264.6865  95.1970 13.97437757143365

Volg KOSMOS-2571 SUBSAT in realtime met AllMySat

Download on the App Store